Change the Weather History Date:

Wednesday, February 19, 2014

  Actual Average (KRBD) Record (KRBD)
Temperature  
Mean Temperature 65 °F -  
Max Temperature 70 °F 59 °F 73 °F (2002)
Min Temperature 60 °F 40 °F 24 °F (2006)
Growing Degree Days 15 (Base 50)    
Moisture  
Dew Point 60 °F    
Average Humidity 85    
Maximum Humidity 96    
Minimum Humidity 70    
Precipitation  
Precipitation 0.00 in - - ()
Sea Level Pressure  
Sea Level Pressure 29.81 in    
Wind  
Wind Speed 10 mph (SSE)    
Max Wind Speed 17 mph    
Max Gust Speed 30 mph    
Visibility 8 miles    
Events      
Averages and records for this station are not official NWS values.
T = Trace of Precipitation, MM = Missing Value Source: NWS Daily Summary

Daily Weather History Graph

Daily Weather History Graph

Search for Another Location

Airport or City:

Trip Planner

Search our weather history database for the weather conditions in past years. The results will help you decide how hot, cold, wet, or windy it might be!

Date:

Astronomy

Feb. 19, 2014 Rise Set
Actual Time 7:07 AM CST 6:17 PM CST
Civil Twilight 6:42 AM CST 6:42 PM CST
Nautical Twilight 6:13 AM CST 7:11 PM CST
Astronomical Twilight 5:44 AM CST 7:39 PM CST
Moon 10:53 PM CST (2/19) 9:30 AM CST (2/19)
Length of Visible Light 12h 00m
Length of Day
11h 10m
Waning Gibbous, 79% of the Moon is Illuminated
Feb 19
Waning Gibbous
Feb 22
Last Quarter
Mar 1
New
Mar 8
First Quarter
Mar 16
Full

Hourly Weather History & Observations

Time (CST) Temp. Dew Point Humidity Pressure Visibility Wind Dir Wind Speed Gust Speed Precip Events Conditions
12:53 AM 63.0 °F 57.0 °F 81% 29.87 in 10.0 mi SSE 5.8 mph - N/A   Clear
1:53 AM 62.1 °F 57.9 °F 86% 29.88 in 10.0 mi South 5.8 mph - N/A   Clear
2:53 AM 60.1 °F 57.9 °F 93% 29.87 in 7.0 mi SE 5.8 mph - N/A   Clear
3:53 AM 61.0 °F 59.0 °F 93% 29.87 in 6.0 mi SSE 6.9 mph - N/A   Clear
4:10 AM 60.8 °F 59.0 °F 94% 29.88 in 6.0 mi SSE 9.2 mph - N/A   Scattered Clouds
4:19 AM 62.6 °F 60.8 °F 94% 29.88 in 6.0 mi SSE 10.4 mph - N/A   Mostly Cloudy
4:53 AM 62.1 °F 61.0 °F 96% 29.86 in 5.0 mi SSE 10.4 mph 18.4 mph N/A   Overcast
5:00 AM 62.6 °F 60.8 °F 94% 29.88 in 4.0 mi SSE 10.4 mph - N/A   Overcast
5:53 AM 63.0 °F 61.0 °F 93% 29.86 in 4.0 mi SSE 9.2 mph - N/A   Overcast
6:53 AM 63.0 °F 61.0 °F 93% 29.87 in 3.0 mi SSE 11.5 mph - N/A   Overcast
7:23 AM 62.6 °F 60.8 °F 94% 29.89 in 1.5 mi SSE 8.1 mph - N/A   Overcast
7:53 AM 62.1 °F 61.0 °F 96% 29.88 in 2.0 mi SSE 11.5 mph - N/A   Overcast
8:07 AM 62.6 °F 60.8 °F 94% 29.90 in 0.8 mi SSE 9.2 mph - N/A   Overcast
8:50 AM 62.6 °F 60.8 °F 94% 29.91 in 3.0 mi SSE 12.7 mph 17.3 mph N/A   Overcast
8:53 AM 62.1 °F 60.1 °F 93% 29.90 in 4.0 mi SSE 13.8 mph 17.3 mph N/A   Overcast
9:44 AM 62.6 °F 60.8 °F 94% 29.90 in 6.0 mi SSE 11.5 mph 21.9 mph N/A   Overcast
9:53 AM 63.0 °F 60.1 °F 90% 29.89 in 6.0 mi SSE 12.7 mph 19.6 mph N/A   Overcast
10:53 AM 64.9 °F 60.1 °F 84% 29.87 in 10.0 mi SSE 15.0 mph 24.2 mph N/A   Overcast
11:53 AM 66.0 °F 60.1 °F 81% 29.86 in 10.0 mi South 13.8 mph 20.7 mph N/A   Overcast
12:33 PM 66.2 °F 60.8 °F 83% 29.84 in 10.0 mi SSE 13.8 mph 21.9 mph N/A   Overcast
12:53 PM 66.0 °F 60.1 °F 81% 29.81 in 10.0 mi SSE 16.1 mph - N/A   Overcast
1:53 PM 66.0 °F 60.1 °F 81% 29.79 in 10.0 mi SSE 13.8 mph 19.6 mph N/A   Overcast
2:36 PM 66.2 °F 60.8 °F 83% 29.78 in 10.0 mi SSE 17.3 mph 23.0 mph N/A   Overcast
2:53 PM 66.9 °F 60.1 °F 79% 29.76 in 10.0 mi South 16.1 mph - N/A   Overcast
3:53 PM 68.0 °F 60.1 °F 76% 29.73 in 10.0 mi South 15.0 mph 21.9 mph N/A   Overcast
4:53 PM 70.0 °F 60.1 °F 71% 29.71 in 10.0 mi South 15.0 mph 20.7 mph N/A   Overcast
5:24 PM 69.8 °F 60.8 °F 73% 29.71 in 10.0 mi SSE 8.1 mph - N/A   Overcast
5:53 PM 70.0 °F 60.1 °F 71% 29.69 in 10.0 mi SSE 12.7 mph 19.6 mph N/A   Mostly Cloudy
6:53 PM 69.1 °F 59.0 °F 70% 29.68 in 10.0 mi SSE 9.2 mph - N/A   Clear
7:53 PM 68.0 °F 59.0 °F 73% 29.67 in 10.0 mi SSE 8.1 mph - N/A   Clear
8:53 PM 66.9 °F 59.0 °F 76% 29.68 in 10.0 mi SSE 6.9 mph - N/A   Clear
9:53 PM 68.0 °F 59.0 °F 73% 29.67 in 10.0 mi SSE 12.7 mph 23.0 mph N/A   Clear
10:53 PM 66.9 °F 60.1 °F 79% 29.65 in 10.0 mi SSE 16.1 mph 27.6 mph N/A   Clear
11:53 PM 66.9 °F 60.1 °F 79% 29.62 in 10.0 mi South 17.3 mph 29.9 mph N/A   Scattered Clouds